Lid_Strength_Index
7 7 7 7 7 7 8 7 9 8 8 6 6 6 6 5 5 5 4 4 3 3 3 2 2 2 1 0 0 -0 0 0 0 -0 -0 -0 -0 -1 -1 -1 -1 -1 -1 -0
7 7 7 8 7 7 7 7 8 7 8 5 5 5 5 5 5 5 5 4 3 3 3 2 2 2 1 0 0 -0 0 1 0 -0 -0 -0 -0 -0 -0 -0 -0 -1 -0 -0
9 8 8 10 7 7 7 6 7 8 7 5 6 6 5 5 5 5 4 4 3 3 2 2 2 1 1 0 -0 0 1 0 0 -0 0 0 0 0 0 0 -0 0 -0 -0
9 9 13 7 6 6 6 6 6 6 6 6 5 5 4 4 4 4 4 3 3 2 2 2 1 1 1 1 -0 0 1 0 0 0 1 0 0 0 0 0 0 1 0 0
11 11 8 8 7 7 8 7 5 5 5 5 5 5 5 3 3 3 3 3 2 2 2 1 1 1 1 1 0 1 1 1 1 1 1 1 1 1 0 1 1 1 0 0
9 11 12 8 6 5 5 9 5 5 5 6 5 8 6 4 3 3 2 2 2 2 2 2 2 2 2 1 1 1 1 2 1 0 0 1 0 0 0 0 0 0 1 0
9 11 8 6 5 5 10 9 5 5 5 5 6 6 4 3 3 2 2 2 1 2 2 2 2 2 1 1 1 0 0 1 1 0 0 -0 -0 -0 1 1 0 0 1 0
9 11 11 5 5 8 6 5 5 4 4 5 4 4 4 3 3 3 3 2 2 3 2 1 1 1 1 1 0 -0 -0 1 1 0 -0 -0 -0 0 0 0 1 1 1 1
8 8 6 4 5 4 4 5 4 4 4 4 4 4 4 4 3 3 2 3 3 2 1 1 0 1 2 1 0 0 1 1 1 0 0 0 0 1 1 0 1 1 1 2
8 6 6 5 4 3 3 4 3 3 3 3 4 3 3 3 3 3 2 2 1 1 2 2 1 1 1 0 1 1 1 1 0 1 0 0 0 0 2 2 1 2 2 2
7 6 5 5 4 4 4 3 3 3 3 3 3 3 3 3 3 2 2 2 1 2 2 2 1 1 1 1 1 1 1 1 1 1 0 1 0 1 2 2 4 3 3 2
8 5 5 5 4 3 4 4 3 3 3 2 2 3 2 3 2 2 2 2 2 1 1 1 1 2 1 1 1 2 2 2 2 3 1 2 2 1 5 5 7 7 8 6
5 4 4 4 3 3 3 3 3 3 2 3 2 2 2 2 2 2 2 2 2 1 1 1 1 2 1 1 2 2 2 1 2 4 3 3 3 3 3 4 6 7 8 7
3 4 5 4 4 3 3 2 2 2 2 2 2 2 2 2 2 2 2 1 1 1 1 1 1 2 1 1 1 1 2 6 3 2 3 3 3 3 3 3 4 2 6 6
4 3 3 3 3 3 2 2 3 3 3 2 2 2 2 2 2 2 1 1 1 1 1 1 1 2 1 1 1 1 2 2 2 1 1 3 3 2 2 2 2 3 3 6
4 3 3 4 4 3 3 3 3 3 3 2 2 2 2 1 1 1 1 1 1 2 1 1 1 1 1 2 1 2 2 2 3 2 1 2 1 3 2 2 2 3 4 4
4 5 4 4 4 3 3 2 2 2 2 2 2 1 1 1 1 1 1 1 1 1 0 0 1 0 0 1 2 2 3 2 1 2 2 2 2 2 2 2 2 2 3 4
3 3 3 3 3 3 3 2 2 2 2 2 1 1 2 2 2 2 1 1 1 1 0 -0 -0 -0 0 0 1 2 3 3 2 2 2 2 2 2 2 2 2 2 3 3
3 3 3 3 3 3 2 3 2 2 2 2 2 2 1 1 1 1 1 1 1 2 1 -0 0 1 -0 -0 0 1 2 2 1 1 2 3 2 2 2 2 2 2 2 3
3 3 3 3 3 3 3 2 2 2 1 1 2 2 3 2 2 1 1 2 1 1 -0 -0 -0 0 -0 -0 0 1 1 1 1 1 2 2 2 2 2 4 3 2 2 2
3 3 3 3 3 2 2 2 2 2 2 2 2 3 3 2 1 1 2 3 1 0 0 0 0 0 -0 -0 0 0 0 0 1 2 2 2 1 1 1 2 2 2 2 2
3 3 3 2 2 2 2 1 2 1 1 1 1 1 2 2 1 1 1 2 1 3 1 0 0 1 1 0 0 0 0 0 1 1 2 2 1 1 1 1 2 2 3 2
3 3 3 3 3 2 2 2 1 1 1 1 1 1 2 2 1 2 3 0 1 1 0 1 2 2 2 2 2 1 1 0 1 1 1 1 1 1 1 1 1 2 2 1
2 2 2 2 1 2 2 2 1 1 1 1 1 1 1 2 1 0 0 2 3 2 0 0 1 3 3 2 1 1 1 1 1 0 0 4 0 0 0 0 1 2 1 1
2 2 2 2 2 2 2 1 1 1 1 1 1 1 0 0 1 1 0 0 2 1 0 1 2 2 0 0 0 0 1 0 1 0 0 0 0 0 0 0 0 1 1 0
2 2 2 2 2 2 2 2 2 2 2 2 1 1 1 0 0 0 0 1 0 1 0 0 0 0 0 0 0 0 0 0 1 0 1 0 0 0 1 1 0 0 1 0
2 3 2 2 2 2 1 2 2 2 2 2 2 1 1 1 1 1 2 0 0 0 0 0 0 1 0 0 0 0 0 0 1 0 1 0 0 1 2 2 1 -0 0 0